www.pogodaiklimat.ru

Погода и климат >> Архив погоды >> Аргентина >> Сан-Мигель-де-Тукуман


ПОГОДА в Сан-Мигель-де-Тукумане

  • Прогноз погоды в Сан-Мигель-де-Тукумане
  • Монитор погоды в Сан-Мигель-де-Тукумане

АРХИВ ПОГОДЫ в Сан-Мигель-де-Тукумане

Время (UTC), дата Ветер
(напр.,м/с)
 
Видим.   Явления Облачность Т
(С)
Тd
(С)
f
(%)
Тe
(С)
Тes
(С)
Комфортность P
(гПа)
Po
(гПа)
Тmin
(С)
Tmax
(С)
R
(мм)
R24
(мм)
S
(см)
03 19.04 З 2 10 км 10/10 600 м
[Sc]
+20.6 +18.7 89 +25 +25 комфорт 1009.0 958.5
06 19.04 штиль 0 12 км 5/5 1200 м
[Sc]
+19.8 +18.6 93 +22 +22 комфорт 1007.9 957.6
09 19.04 С 2 12 км 3/3 1200 м
[Sc]
+19.2 +17.9 92 +22 +22 комфорт 1008.1 957.6
12 19.04 штиль 0 12 км 9/9 1050 м
[Sc]
+20.2 +18.6 91 +23 +24 комфорт 1009.7 959.0 +18.2 +21.6 0.0
15 19.04 Ю 3 15 км 1/1 1050 м
[Cu hum]
+26.2 +19.6 67 +32 +40 очень
душно
1008.9 958.6
18 19.04 Ю 3 15 км 6/6 1050 м
[Cu hum]
+28.2 +20.5 63 +35 +38 очень
душно
1006.6 956.6
21 19.04 Ю 2 15 км 5/5 1050 м
[Cu Sc]
+26.9 +21.2 71 +34 +35 очень
душно
1005.5 955.4
00 20.04 штиль 0 3500 м 8/4 1350 м
[Sc Ac trans]
+24.8 +21.4 81 +31 +31 очень
душно
1007.8 957.4 +20.2 +28.7
03 20.04 штиль 0 7000 м дымка 9/3 750 м
[Sc Ac As]
+23.6 +22.1 91 +30 +30 очень
душно
1008.5 958.5
06 20.04 ЮВ 2 200 м слаб. морось {туман} туман 10/10 60 м
[Frnb]
+22.9 +22.3 96 +31 +31 очень
душно
1008.1 958.2 0.0
09 20.04 Ю 1 2000 м слаб. дождь {морось} туман 10/9 60 м
[Frnb As op]
+22.4 +21.8 96 +30 +30 очень
душно
1008.4 958.4
12 20.04 ЮЗ 2 2500 м в посл. час туман {дождь} туман 10/9 90 м
[Frnb As op]
+22.4 +21.8 96 +30 +30 очень
душно
1010.6 960.2 +22.2 +25.0 10
15 20.04 Ю 4 4000 м дымка 10/8 150 м
[St Ac As]
+23.5 +22.5 94 +31 +31 очень
душно
1011.6 961.3
18 20.04 З 3 2800 м слаб. дождь 9/6 210 м
[Cu med, cong As op]
+23.6 +22.0 91 +30 +32 очень
душно
1009.8 959.4 2
21 20.04 З 2 8000 м слаб. дождь 9/4 180 м
[Frnb As op]
+22.8 +21.6 93 +30 +31 очень
душно
1009.2 958.8
00 21.04 СВ 2 9000 м дымка {дождь} 10/5 1200 м
[Sc As op]
+22.7 +21.2 91 +30 +30 очень
душно
1010.6 960.2 +22.3 +25.2 2
03 21.04 штиль 0 3000 м слаб. дождь {морось} туман 10/9 60 м
[Frnb As op]
+21.6 +21.0 96 +27 +27 душно 1011.7 961.2
06 21.04 ЮЗ 3 3000 м слаб. дождь {морось} туман 10/9 90 м
[Frnb As op]
+21.2 +20.6 96 +26 +26 душно 1011.1 960.6 1
09 21.04 В 2 3000 м слаб. дождь туман 10/9 90 м
[Frnb As op]
+20.8 +20.2 96 +26 +26 душно 1009.8 959.3
12 21.04 Ю 5 2500 м слаб. дождь туман 10/9 90 м
[Frnb As op]
+18.6 +17.6 94 +19 +19 1013.3 962.4 +18.6 +22.7 31
15 21.04 Ю 5 2500 м слаб. морось {дождь} туман 10/9 90 м
[Frnb As op]
+17.8 +16.8 94 +17 +17 1014.9 963.8
18 21.04 Ю 3 3000 м слаб. морось {дождь} 10/9 150 м
[Frnb As op]
+18.2 +16.6 90 +19 +19 1012.8 961.8 2
21 21.04 Ю 4 8000 м осадки на расстоянии {морось} 10/9 120 м
[Frnb As op]
+17.7 +16.7 94 +18 +18 1012.4 961.3
00 22.04 ЮЗ 2 2600 м слаб. морось 10/10 90 м
[Frnb]
+16.8 +16.3 97 +17 +17 1015.1 963.6 +16.7 +18.6 0.2
03 22.04 ЮЗ 3 2000 м слаб. морось {дождь} туман 10/9 900 м
[Frnb As op]
+16.4 +15.7 96 +16 +16 1016.1 964.5
06 22.04 ЮЗ 3 2000 м слаб. морось {дождь} туман 10/9 90 м
[Frnb As op]
+15.9 +15.2 96 +15 +15 1015.4 963.8 6
09 22.04 Ю 4 2000 м слаб. морось туман 10/9
[Frnb As op]
+15.3 +14.6 96 +14 +14 1015.0 963.3
12 22.04 Ю 3 2000 м слаб. морось туман 10/9 90 м
[Frnb As op]
+14.2 +13.5 96 +13 +13 1017.8 965.8 +14.2 +16.8 1
15 22.04 Ю 4 1500 м слаб. морось туман 10/9 90 м
[Frnb As op]
+14.5 +13.6 94 +13 +13 1018.4 966.4
18 22.04 Ю 3 2000 м слаб. морось туман 10/9 120 м
[Frnb As op]
+14.8 +13.8 94 +14 +14 1016.5 964.5
21 22.04 Ю 3 2500 м слаб. морось туман 10/9 120 м
[Frnb As op]
+14.2 +13.1 93 +13 +13 1016.6 964.5
00 23.04 Ю 4 2500 м слаб. морось туман 10/9 60 м
[Frnb As op]
+13.0 +12.3 96 +11 +11 1019.7 967.3 +13.0 +15.2 1
03 23.04 Ю 4 2500 м слаб. морось туман 10/10 90 м
[Frnb]
+12.7 +11.8 94 +11 +11 1021.3 968.8
06 23.04 З 2 5000 м дымка 10/10 60 м
[St]
+12.4 +11.7 95 +11 +11 1020.4 967.8 2
09 23.04 ЮЗ 2 6000 м в посл. час морось туман 10/10 60 м
[Frnb]
+12.2 +11.5 95 +11 +11 1019.7 967.2
12 23.04 ЮЗ 2 3000 м слаб. морось туман 10/9 90 м
[Frnb As op]
+12.4 +11.5 94 +12 +12 1021.3 968.6 +12.0 +13.0 0.4
15 23.04 З 2 6000 м в посл. час морось туман 10/9 240 м
[Frnb As op]
+14.6 +12.7 88 +14 +14 1020.4 967.8
18 23.04 Ю 4 4500 м слаб. морось туман 10/9 240 м
[Frnb As op]
+15.0 +12.7 86 +14 +14 1018.4 966.0 0.1
21 23.04 Ю 2 2000 м слаб. морось туман 10/9 150 м
[Frnb As op]
+14.0 +12.9 93 +13 +13 1017.9 965.4
00 24.04 штиль 0 3000 м слаб. морось туман 10/9 150 м
[Frnb As op]
+13.6 +12.5 93 +13 +13 1019.3 966.8 +12.4 +15.2 0.0
03 24.04 Ю 1 3000 м слаб. морось туман 10/8 90 м
[Frnb As op]
+13.6 +12.9 96 +14 +14 1020.3 967.8
06 24.04 З 2 2500 м дождь {морось} туман 10/9 60 м
[Frnb As op]
+13.8 +13.1 96 +13 +13 1020.2 967.8 3
09 24.04 Ю 2 2500 м слаб. морось {дождь} туман 10/10 60 м
[Frnb]
+13.8 +13.1 96 +13 +13 1018.9 966.6
12 24.04 Ю 2 3000 м слаб. морось {дождь} туман 10/9 60 м
[Frnb As op]
+13.8 +13.1 96 +13 +13 1019.7 967.3 +13.4 +13.8 1
15 24.04 Ю 2 5000 м осадки на расстоянии {морось} туман 10/9 150 м
[Frnb As op]
+15.4 +14.4 94 +15 +15 1018.8 966.6
18 24.04 ЮЗ 3 8000 м дымка 10/9 240 м
[Frnb As op]
+15.7 +14.2 91 +15 +15 1016.5 964.4 0.1
21 24.04 Ю 3 3000 м слаб. морось туман 10/9 150 м
[Frnb As op]
+15.6 +14.6 94 +15 +15 1015.5 963.4
00 25.04 Ю 3 2500 м слаб. морось туман 10/9 120 м
[Frnb As op]
+14.8 +13.8 94 +14 +14 1017.7 965.4 +13.8 +16.4 0.0
03 25.04 Ю 3 2500 м слаб. морось туман 10/9 120 м
[Frnb As op]
+14.6 +13.9 96 +14 +14 1019.1 966.9
06 25.04 Ю 3 2000 м слаб. морось туман 10/9 90 м
[Frnb As op]
+14.3 +13.6 96 +13 +13 1018.6 966.5 1
09 25.04 штиль 0 800 м слаб. морось {туман} туман 10/9 60 м
[Frnb As op]
+14.1 +13.6 97 +14 +14 1017.4 965.3
12 25.04 штиль 0 1500 м слаб. морось {туман} туман 10/9 30 м
[Frnb As op]
+14.4 +13.7 96 +14 +14 1018.6 966.4 +13.8 +14.8 1
15 25.04 З 2 10 км {морось} 9/9 500 м
[Frnb]
+17.4 +14.7 84 +18 +19 1018.7 966.6
18 25.04 ЮВ 3 15 км {морось} 9/9 900 м
[Cu hum]
+19.6 +14.6 73 +22 +22 комфорт 1016.0 964.2 0.1
21 25.04 ЮВ 3 15 км 9/6 600 м
[Cu Sc Ac As]
+19.4 +14.8 75 +21 +21 комфорт 1015.6 963.8
00 26.04 С 3 15 км 4/1 900 м
[Sc Ac trans]
+16.2 +14.7 91 +16 +16 1017.4 965.4 +14.4 +20.5

 

Местоположение метеостанции Сан-Мигель-де-Тукуман (Аргентина): широта -26.85 долгота -65.09 высота над уровнем моря 450 м.

В архиве по умолчанию представлена погода в Сан-Мигель-де-Тукумане за последнюю неделю. Архивные данные за месяц целиком и за предыдущие месяцы, начиная с января 2011 года, Вы можете получить, выбрав интересующий диапазон дат из раскрывающегося списка и нажав кнопку "Ввод!".


*Определитесь, кто Вы:
робот инопланетянин человек

Внимание! Время в таблицах - всемирное. Для получения местного времени необходимо прибавить поправку, которая равна -3 ч.

Смотрите также архив погоды в соседних городах и на ближайших метеорологических станциях:

Погода в Сантьяго-дель-Эстеро (Аргентина) (128 км)
Погода в Сан-Фернандо-дель-Валье-де-Катамарке (Аргентина) (206 км)
Погода в Сальте (Аргентина) (226 км)
Погода в Сан-Сальвадор-де-Жужуе (Аргентина) (275 км)
Погода в Ла-Риохе (Аргентина) (328 км)
Погода в Вилла де Мария дель Рио Секо (Аргентина) (366 км)
Погода в Чамикале (Аргентина) (407 км)
Погода в Сан-Рамон-де-ла-Нуэва-Оране (Аргентина) (419 км)
Погода в Сересе (Аргентина) (456 км)
Погода в Пресиденсиа-Роке-Саэнс-Пеньи (Аргентина) (458 км)

Пояснения к столбцам:

Ветер - указаны скорость ветра в м/с - средняя за 10 мин, порывы в срок и между сроками (в фигурных скобках) и направление, откуда дует ветер: С - северный, СВ - северо-восточный, В - восточный, ЮВ - юго-восточный, Ю - южный, ЮЗ - юго-западный, З - западный, СЗ - северо-западный.
Видимость - горизонтальная дальность видимости в метрах или километрах. При видимости от 1 до 10 км при отсутствии осадков обычно наблюдается дымка, при ухудшении видимости до 1 км и менее - туман. В сухую погоду видимость может ухудшаться дымом, пылью или мглою.
Явления - указаны атмосферные явления, наблюдавшиеся в срок или в последний час перед сроком; фигурными скобками обозначены явления, наблюдавшиеся между сроками (за 1-3 часа до срока); квадратными скобками обозначены град или гололедные отложения с указанием их диаметра в мм.
Облачность - указаны через наклонную черту общая и нижняя облачность в баллах и высота нижней границы облаков в метрах; квадратными скобками обозначены формы облаков: Ci - перистые, Cs - перисто-слоистые, Cc - перисто-кучевые, Ac - высококучевые, As - высокослоистые, Sc - слоисто-кучевые, Ns - слоисто-дождевые, Cu - кучевые, Cb - кучево-дождевые. Подробнее классификацию облаков см. в Атласе облаков (PDF).
T - Температура воздуха - температура, измеренная на высоте 2 м над землей.
Td - Температура точки росы - температура, при понижении до которой содержащийся в воздухе водяной пар достигнет насыщения.
f - Относительная влажность воздуха - влажноcть воздуха, измеренная на высоте 2 м над землей.
Te - Эффективная температура - температура, которую ощущает одетый по сезону человек в тени. Характеристика душности погоды. При расчете учитывается влияние влажности воздуха и скорости ветра на теплоощущения человека.
Tes - Эффективная температура на солнце - температура, которую ощущает человек, с поправкой на солнечный нагрев. Характеристика знойности погоды. Зависит от высоты солнца над горизонтом, облачности и скорости ветра. Ночью, в пасмурную погоду, а также при ветре 12 м/с и более поправка равна нулю.
P - Атмосферное давление - приведенное к уровню моря атмосферное давление.
Po - Атмосферное давление - измеренное на уровне метеостанции атмосферное давление.
Tmin - Минимальная температура - минимум температуры воздуха на высоте 2 м над землей.
Tmax - Максимальная температура - максимум температуры воздуха на высоте 2 м над землей.
R - Количество осадков - Количество выпавших осадков за период времени, мм. При наведении курсора мыши на число - период времени, за который выпало указанное количество осадков.
R24 - Количество осадков - Количество выпавших осадков за 24 часа, мм.
S - Снежный покров - Высота снежного покрова, см. При наведении курсора мыши на число - состояние снежного покрова и степень покрытия местности в баллах.